Time,TemperatureF,DewpointF,PressureIn,WindDirection,WindDirectionDegrees,WindSpeedMPH,WindSpeedGustMPH,Humidity,HourlyPrecipIn,Conditions,Clouds,dailyrainin,SoftwareType,DateUTC
2013-01-17 00:02:00,6.1,-0.1,29.46,WSW,240,0.0,2.0,75,0.00,,,0.00,Weather View 32 v70,2013-01-17 09:02:00,
2013-01-17 00:07:00,6.1,-0.1,29.45,WSW,241,0.0,2.0,75,0.00,,,0.00,Weather View 32 v70,2013-01-17 09:07:00,
2013-01-17 00:12:00,6.1,-0.1,29.45,WSW,240,0.0,2.0,75,0.00,,,0.00,Weather View 32 v70,2013-01-17 09:12:00,
2013-01-17 00:17:00,6.1,-0.1,29.45,WSW,240,0.0,2.0,75,0.00,,,0.00,Weather View 32 v70,2013-01-17 09:17:00,
2013-01-17 00:22:00,6.1,-0.1,29.45,WSW,240,0.0,2.0,75,0.00,,,0.00,Weather View 32 v70,2013-01-17 09:22:00,
2013-01-17 00:34:00,6.1,-0.1,29.45,WSW,240,0.0,2.0,75,0.00,,,0.00,Weather View 32 v70,2013-01-17 09:34:00,
2013-01-17 00:39:00,6.1,-0.1,29.45,WSW,240,0.0,2.0,75,0.00,,,0.00,Weather View 32 v70,2013-01-17 09:39:00,
2013-01-17 00:44:00,6.1,-0.1,29.45,WSW,240,0.0,2.0,75,0.00,,,0.00,Weather View 32 v70,2013-01-17 09:44:00,
2013-01-17 00:49:00,6.1,-0.1,29.45,WSW,240,0.0,2.0,75,0.00,,,0.00,Weather View 32 v70,2013-01-17 09:49:00,
2013-01-17 00:54:00,6.1,-0.1,29.45,WSW,240,0.0,2.0,75,0.00,,,0.00,Weather View 32 v70,2013-01-17 09:54:00,
2013-01-17 00:59:00,6.1,-0.1,29.45,WSW,240,0.0,2.0,75,0.00,,,0.00,Weather View 32 v70,2013-01-17 09:59:00,
2013-01-17 01:04:00,6.1,-0.1,29.45,WSW,240,0.0,2.0,75,0.00,,,0.00,Weather View 32 v70,2013-01-17 10:04:00,
2013-01-17 01:09:00,6.2,0.0,29.45,WSW,240,0.0,2.0,75,0.00,,,0.00,Weather View 32 v70,2013-01-17 10:09:00,
2013-01-17 01:14:00,6.2,0.0,29.45,WSW,240,0.0,2.0,75,0.00,,,0.00,Weather View 32 v70,2013-01-17 10:14:00,
2013-01-17 01:19:00,6.3,0.1,29.45,WSW,240,0.0,0.0,75,0.00,,,0.00,Weather View 32 v70,2013-01-17 10:19:00,
2013-01-17 01:24:00,6.3,0.1,29.45,WSW,240,0.0,0.0,75,0.00,,,0.00,Weather View 32 v70,2013-01-17 10:24:00,
2013-01-17 01:29:00,6.3,0.1,29.44,WSW,240,0.0,0.0,75,0.00,,,0.00,Weather View 32 v70,2013-01-17 10:29:00,
2013-01-17 01:34:00,6.4,0.2,29.44,WSW,240,0.0,0.0,75,0.00,,,0.00,Weather View 32 v70,2013-01-17 10:34:00,
2013-01-17 01:39:00,6.4,0.2,29.44,WSW,240,0.0,0.0,75,0.00,,,0.00,Weather View 32 v70,2013-01-17 10:39:00,
2013-01-17 01:44:00,6.4,0.2,29.44,WSW,241,0.0,0.0,75,0.00,,,0.00,Weather View 32 v70,2013-01-17 10:44:00,
2013-01-17 01:49:00,6.5,0.3,29.44,WSW,240,0.0,0.0,75,0.00,,,0.00,Weather View 32 v70,2013-01-17 10:49:00,
2013-01-17 01:54:00,6.5,0.3,29.44,WSW,241,1.0,1.0,75,0.00,,,0.00,Weather View 32 v70,2013-01-17 10:54:00,
2013-01-17 01:59:00,6.5,0.3,29.44,WSW,240,0.0,1.0,75,0.00,,,0.00,Weather View 32 v70,2013-01-17 10:59:00,
2013-01-17 02:04:00,6.4,0.2,29.44,WSW,241,0.0,1.0,75,0.00,,,0.00,Weather View 32 v70,2013-01-17 11:04:00,
2013-01-17 02:09:00,6.4,0.2,29.44,WSW,240,0.0,1.0,75,0.00,,,0.00,Weather View 32 v70,2013-01-17 11:09:00,
2013-01-17 02:14:00,6.3,0.1,29.43,WSW,240,0.0,1.0,75,0.00,,,0.00,Weather View 32 v70,2013-01-17 11:14:00,
2013-01-17 02:19:00,6.3,0.1,29.43,WSW,240,0.0,1.0,75,0.00,,,0.00,Weather View 32 v70,2013-01-17 11:19:00,
2013-01-17 02:24:00,6.2,-0.3,29.44,WSW,240,0.0,1.0,74,0.00,,,0.00,Weather View 32 v70,2013-01-17 11:24:00,
2013-01-17 02:29:00,6.1,-0.1,29.43,WSW,240,0.0,1.0,75,0.00,,,0.00,Weather View 32 v70,2013-01-17 11:29:00,
2013-01-17 02:34:00,6.1,-0.1,29.44,WSW,241,0.0,1.0,75,0.00,,,0.00,Weather View 32 v70,2013-01-17 11:34:00,
2013-01-17 02:39:00,6.0,-0.5,29.43,WSW,241,0.0,1.0,74,0.00,,,0.00,Weather View 32 v70,2013-01-17 11:39:00,
2013-01-17 02:44:00,5.9,-0.6,29.44,WSW,241,0.0,1.0,74,0.00,,,0.00,Weather View 32 v70,2013-01-17 11:44:00,
2013-01-17 02:49:00,5.9,-0.6,29.43,WSW,240,0.0,1.0,74,0.00,,,0.00,Weather View 32 v70,2013-01-17 11:49:00,
2013-01-17 02:54:00,5.9,-0.3,29.43,WSW,240,0.0,1.0,75,0.00,,,0.00,Weather View 32 v70,2013-01-17 11:54:00,
2013-01-17 02:59:00,5.9,-0.6,29.43,WSW,240,0.0,0.0,74,0.00,,,0.00,Weather View 32 v70,2013-01-17 11:59:00,
2013-01-17 03:04:00,5.9,-0.3,29.43,WSW,240,0.0,0.0,75,0.00,,,0.00,Weather View 32 v70,2013-01-17 12:04:00,
2013-01-17 03:09:00,5.9,-0.6,29.44,WSW,241,0.0,0.0,74,0.00,,,0.00,Weather View 32 v70,2013-01-17 12:09:00,
2013-01-17 03:14:00,5.9,-0.3,29.43,WSW,240,0.0,0.0,75,0.00,,,0.00,Weather View 32 v70,2013-01-17 12:14:00,
2013-01-17 03:19:00,5.9,-0.3,29.43,WSW,241,0.0,0.0,75,0.00,,,0.00,Weather View 32 v70,2013-01-17 12:19:00,
2013-01-17 03:24:00,5.9,-0.3,29.43,WSW,240,0.0,0.0,75,0.00,,,0.00,Weather View 32 v70,2013-01-17 12:24:00,
2013-01-17 03:29:00,5.8,-0.4,29.43,WSW,240,0.0,0.0,75,0.00,,,0.00,Weather View 32 v70,2013-01-17 12:29:00,
2013-01-17 03:34:00,5.9,-0.3,29.43,WSW,241,0.0,0.0,75,0.00,,,0.00,Weather View 32 v70,2013-01-17 12:34:00,
2013-01-17 03:39:00,5.8,-0.4,29.43,WSW,241,0.0,0.0,75,0.00,,,0.00,Weather View 32 v70,2013-01-17 12:39:00,
2013-01-17 03:44:00,5.8,-0.7,29.43,WSW,240,0.0,0.0,74,0.00,,,0.00,Weather View 32 v70,2013-01-17 12:44:00,
2013-01-17 03:49:00,5.8,-0.7,29.43,WSW,240,0.0,0.0,74,0.00,,,0.00,Weather View 32 v70,2013-01-17 12:49:00,
2013-01-17 03:54:00,5.8,-0.4,29.44,WSW,241,0.0,0.0,75,0.00,,,0.00,Weather View 32 v70,2013-01-17 12:54:00,
2013-01-17 03:59:00,5.7,-0.5,29.43,WSW,240,0.0,0.0,75,0.00,,,0.00,Weather View 32 v70,2013-01-17 12:59:00,
2013-01-17 04:04:00,5.7,-0.5,29.43,WSW,240,0.0,0.0,75,0.00,,,0.00,Weather View 32 v70,2013-01-17 13:04:00,
2013-01-17 04:09:00,5.7,-0.5,29.43,WSW,240,0.0,0.0,75,0.00,,,0.00,Weather View 32 v70,2013-01-17 13:09:00,
2013-01-17 04:14:00,5.7,-0.8,29.43,WSW,241,0.0,0.0,74,0.00,,,0.00,Weather View 32 v70,2013-01-17 13:14:00,
2013-01-17 04:19:00,5.6,-0.9,29.43,WSW,241,0.0,0.0,74,0.00,,,0.00,Weather View 32 v70,2013-01-17 13:19:00,
2013-01-17 04:24:00,5.6,-0.9,29.42,WSW,240,0.0,0.0,74,0.00,,,0.00,Weather View 32 v70,2013-01-17 13:24:00,
2013-01-17 04:29:00,5.5,-1.0,29.43,WSW,241,0.0,0.0,74,0.00,,,0.00,Weather View 32 v70,2013-01-17 13:29:00,
2013-01-17 04:34:00,5.5,-1.0,29.43,WSW,240,0.0,0.0,74,0.00,,,0.00,Weather View 32 v70,2013-01-17 13:34:00,
2013-01-17 04:39:00,5.4,-1.1,29.42,WSW,240,0.0,0.0,74,0.00,,,0.00,Weather View 32 v70,2013-01-17 13:39:00,
2013-01-17 04:44:00,5.3,-1.2,29.42,WSW,240,0.0,0.0,74,0.00,,,0.00,Weather View 32 v70,2013-01-17 13:44:00,
2013-01-17 04:49:00,5.2,-1.3,29.43,WSW,241,0.0,0.0,74,0.00,,,0.00,Weather View 32 v70,2013-01-17 13:49:00,
2013-01-17 04:54:00,5.1,-1.4,29.43,WSW,240,0.0,0.0,74,0.00,,,0.00,Weather View 32 v70,2013-01-17 13:54:00,
2013-01-17 04:59:00,5.0,-1.5,29.43,WSW,240,0.0,0.0,74,0.00,,,0.00,Weather View 32 v70,2013-01-17 13:59:00,
2013-01-17 05:04:00,4.9,-1.6,29.42,WSW,240,0.0,0.0,74,0.00,,,0.00,Weather View 32 v70,2013-01-17 14:04:00,
2013-01-17 05:09:00,4.9,-1.6,29.42,WSW,240,0.0,0.0,74,0.00,,,0.00,Weather View 32 v70,2013-01-17 14:09:00,
2013-01-17 05:14:00,4.8,-1.9,29.42,WSW,240,0.0,0.0,73,0.00,,,0.00,Weather View 32 v70,2013-01-17 14:14:00,
2013-01-17 05:19:00,4.7,-1.8,29.42,WSW,240,0.0,0.0,74,0.00,,,0.00,Weather View 32 v70,2013-01-17 14:19:00,
2013-01-17 05:24:00,4.7,-1.8,29.42,WSW,240,0.0,0.0,74,0.00,,,0.00,Weather View 32 v70,2013-01-17 14:24:00,
2013-01-17 05:29:00,4.7,-2.0,29.42,WSW,240,0.0,0.0,73,0.00,,,0.00,Weather View 32 v70,2013-01-17 14:29:00,
2013-01-17 05:34:00,4.5,-2.2,29.42,WSW,240,0.0,0.0,73,0.00,,,0.00,Weather View 32 v70,2013-01-17 14:34:00,
2013-01-17 05:38:00,4.5,-2.2,29.42,WSW,240,0.0,0.0,73,0.00,,,0.00,Weather View 32 v70,2013-01-17 14:38:00,
2013-01-17 05:43:00,4.4,-2.3,29.42,WSW,240,0.0,0.0,73,0.00,,,0.00,Weather View 32 v70,2013-01-17 14:43:00,
2013-01-17 05:48:00,4.5,-2.2,29.42,WSW,240,0.0,0.0,73,0.00,,,0.00,Weather View 32 v70,2013-01-17 14:48:00,
2013-01-17 05:53:00,4.5,-1.9,29.42,WSW,240,0.0,0.0,74,0.00,,,0.00,Weather View 32 v70,2013-01-17 14:53:00,
2013-01-17 05:58:00,4.5,-1.9,29.42,WSW,240,0.0,0.0,74,0.00,,,0.00,Weather View 32 v70,2013-01-17 14:58:00,
2013-01-17 06:03:00,4.4,-2.0,29.42,WSW,240,0.0,0.0,74,0.00,,,0.00,Weather View 32 v70,2013-01-17 15:03:00,
2013-01-17 06:08:00,4.4,-2.3,29.42,WSW,241,0.0,0.0,73,0.00,,,0.00,Weather View 32 v70,2013-01-17 15:08:00,
2013-01-17 06:13:00,4.3,-2.1,29.42,WSW,241,0.0,0.0,74,0.00,,,0.00,Weather View 32 v70,2013-01-17 15:13:00,
2013-01-17 06:18:00,4.3,-2.4,29.42,WSW,241,0.0,0.0,73,0.00,,,0.00,Weather View 32 v70,2013-01-17 15:18:00,
2013-01-17 06:23:00,4.3,-2.4,29.42,WSW,240,0.0,0.0,73,0.00,,,0.00,Weather View 32 v70,2013-01-17 15:23:00,
2013-01-17 06:28:00,4.2,-2.2,29.42,WSW,241,0.0,0.0,74,0.00,,,0.00,Weather View 32 v70,2013-01-17 15:28:00,
2013-01-17 06:33:00,4.1,-2.6,29.42,WSW,240,0.0,0.0,73,0.00,,,0.00,Weather View 32 v70,2013-01-17 15:33:00,
2013-01-17 06:38:00,4.1,-2.6,29.42,WSW,240,0.0,0.0,73,0.00,,,0.00,Weather View 32 v70,2013-01-17 15:38:00,
2013-01-17 06:43:00,4.1,-2.6,29.42,WSW,241,0.0,0.0,73,0.00,,,0.00,Weather View 32 v70,2013-01-17 15:43:00,
2013-01-17 06:48:00,4.1,-2.6,29.43,WSW,240,0.0,0.0,73,0.00,,,0.00,Weather View 32 v70,2013-01-17 15:48:00,
2013-01-17 06:53:00,4.1,-2.6,29.42,WSW,240,0.0,0.0,73,0.00,,,0.00,Weather View 32 v70,2013-01-17 15:53:00,
2013-01-17 06:58:00,4.1,-2.3,29.43,WSW,240,0.0,0.0,74,0.00,,,0.00,Weather View 32 v70,2013-01-17 15:58:00,
2013-01-17 07:03:00,4.1,-2.6,29.42,WSW,240,0.0,0.0,73,0.00,,,0.00,Weather View 32 v70,2013-01-17 16:03:00,
2013-01-17 07:08:00,4.1,-2.3,29.43,WSW,241,0.0,0.0,74,0.00,,,0.00,Weather View 32 v70,2013-01-17 16:08:00,
2013-01-17 07:13:00,4.2,-2.5,29.43,WSW,240,0.0,0.0,73,0.00,,,0.00,Weather View 32 v70,2013-01-17 16:13:00,
2013-01-17 07:18:00,4.2,-2.2,29.43,WSW,241,0.0,0.0,74,0.00,,,0.00,Weather View 32 v70,2013-01-17 16:18:00,
2013-01-17 07:23:00,4.2,-2.2,29.43,WSW,240,0.0,0.0,74,0.00,,,0.00,Weather View 32 v70,2013-01-17 16:23:00,
2013-01-17 07:28:00,4.2,-2.2,29.43,WSW,241,0.0,0.0,74,0.00,,,0.00,Weather View 32 v70,2013-01-17 16:28:00,
2013-01-17 07:33:00,4.3,-2.1,29.43,WSW,240,0.0,0.0,74,0.00,,,0.00,Weather View 32 v70,2013-01-17 16:33:00,
2013-01-17 07:38:00,4.2,-2.2,29.43,WSW,240,0.0,0.0,74,0.00,,,0.00,Weather View 32 v70,2013-01-17 16:38:00,
2013-01-17 07:43:00,4.3,-2.1,29.43,WSW,240,0.0,0.0,74,0.00,,,0.00,Weather View 32 v70,2013-01-17 16:43:00,
2013-01-17 07:48:00,4.3,-2.1,29.43,WSW,240,0.0,0.0,74,0.00,,,0.00,Weather View 32 v70,2013-01-17 16:48:00,
2013-01-17 07:53:00,4.3,-2.1,29.43,WSW,240,0.0,0.0,74,0.00,,,0.00,Weather View 32 v70,2013-01-17 16:53:00,
2013-01-17 07:58:00,4.3,-2.1,29.43,WSW,240,0.0,0.0,74,0.00,,,0.00,Weather View 32 v70,2013-01-17 16:58:00,
2013-01-17 08:03:00,4.3,-2.1,29.43,WSW,240,0.0,0.0,74,0.00,,,0.00,Weather View 32 v70,2013-01-17 17:03:00,
2013-01-17 08:08:00,4.2,-2.5,29.43,WSW,240,0.0,0.0,73,0.00,,,0.00,Weather View 32 v70,2013-01-17 17:08:00,
2013-01-17 08:13:00,4.0,-2.7,29.44,WSW,240,0.0,0.0,73,0.00,,,0.00,Weather View 32 v70,2013-01-17 17:13:00,
2013-01-17 08:18:00,4.0,-2.7,29.43,WSW,240,0.0,0.0,73,0.00,,,0.00,Weather View 32 v70,2013-01-17 17:18:00,
2013-01-17 08:23:00,3.9,-2.8,29.43,WSW,241,0.0,0.0,73,0.00,,,0.00,Weather View 32 v70,2013-01-17 17:23:00,
2013-01-17 08:28:00,3.9,-2.8,29.44,WSW,241,0.0,0.0,73,0.00,,,0.00,Weather View 32 v70,2013-01-17 17:28:00,
2013-01-17 08:33:00,3.7,-3.0,29.44,WSW,240,0.0,0.0,73,0.00,,,0.00,Weather View 32 v70,2013-01-17 17:33:00,
2013-01-17 08:38:00,3.6,-3.1,29.44,WSW,240,0.0,0.0,73,0.00,,,0.00,Weather View 32 v70,2013-01-17 17:38:00,
2013-01-17 08:43:00,3.5,-3.2,29.44,WSW,240,0.0,0.0,73,0.00,,,0.00,Weather View 32 v70,2013-01-17 17:43:00,
2013-01-17 08:48:00,3.4,-3.3,29.44,WSW,240,0.0,0.0,73,0.00,,,0.00,Weather View 32 v70,2013-01-17 17:48:00,
2013-01-17 08:53:00,3.3,-3.4,29.44,WSW,240,0.0,0.0,73,0.00,,,0.00,Weather View 32 v70,2013-01-17 17:53:00,
2013-01-17 08:58:00,3.2,-3.5,29.45,WSW,240,0.0,0.0,73,0.00,,,0.00,Weather View 32 v70,2013-01-17 17:58:00,
2013-01-17 09:03:00,3.1,-3.6,29.44,WSW,241,0.0,0.0,73,0.00,,,0.00,Weather View 32 v70,2013-01-17 18:03:00,
2013-01-17 09:08:00,3.0,-4.0,29.45,WSW,241,0.0,0.0,72,0.00,,,0.00,Weather View 32 v70,2013-01-17 18:08:00,
2013-01-17 09:13:00,2.6,-4.4,29.45,WSW,240,0.0,0.0,72,0.00,,,0.00,Weather View 32 v70,2013-01-17 18:13:00,
2013-01-17 09:18:00,2.5,-4.7,29.45,WSW,240,0.0,0.0,71,0.00,,,0.00,Weather View 32 v70,2013-01-17 18:18:00,
2013-01-17 09:23:00,2.2,-5.0,29.45,WSW,241,0.0,0.0,71,0.00,,,0.00,Weather View 32 v70,2013-01-17 18:23:00,
2013-01-17 09:28:00,1.8,-5.7,29.45,WSW,240,0.0,0.0,70,0.00,,,0.00,Weather View 32 v70,2013-01-17 18:28:00,
2013-01-17 09:33:00,1.5,-6.0,29.45,WSW,240,0.0,0.0,70,0.00,,,0.00,Weather View 32 v70,2013-01-17 18:33:00,
2013-01-17 09:38:00,1.1,-6.4,29.46,WSW,241,0.0,0.0,70,0.00,,,0.00,Weather View 32 v70,2013-01-17 18:38:00,
2013-01-17 09:43:00,0.7,-7.1,29.46,WSW,241,0.0,0.0,69,0.00,,,0.00,Weather View 32 v70,2013-01-17 18:43:00,
2013-01-17 09:48:00,0.4,-7.4,29.46,WSW,240,0.0,0.0,69,0.00,,,0.00,Weather View 32 v70,2013-01-17 18:48:00,
2013-01-17 09:53:00,-0.1,-7.8,29.46,WSW,241,0.0,0.0,69,0.00,,,0.00,Weather View 32 v70,2013-01-17 18:53:00,
2013-01-17 09:58:00,-0.5,-8.2,29.46,WSW,241,0.0,0.0,69,0.00,,,0.00,Weather View 32 v70,2013-01-17 18:58:00,
2013-01-17 10:00:00,0.0,-7.7,29.46,WSW,241,0.0,0.0,69,0.00,,,0.00,Weather View 32 v70,2013-01-17 19:00:00,
2013-01-17 10:03:00,-1.0,-9.0,29.46,WSW,240,0.0,0.0,68,0.00,,,0.00,Weather View 32 v70,2013-01-17 19:03:00,
2013-01-17 10:08:00,-1.5,-9.8,29.47,WSW,240,0.0,0.0,67,0.00,,,0.00,Weather View 32 v70,2013-01-17 19:08:00,
2013-01-17 10:13:00,-1.8,-10.1,29.47,WSW,241,0.0,2.0,67,0.00,,,0.00,Weather View 32 v70,2013-01-17 19:13:00,
2013-01-17 10:18:00,-2.3,-10.2,29.47,WSW,241,2.0,3.0,68,0.00,,,0.00,Weather View 32 v70,2013-01-17 19:18:00,
2013-01-17 17:10:00,-9.3,-18.5,29.62,WSW,241,0.0,0.0,63,0.00,,,0.00,Weather View 32 v70,2013-01-18 02:10:00,
2013-01-17 17:15:00,-9.7,-18.5,29.63,WSW,240,0.0,0.0,64,0.00,,,0.00,Weather View 32 v70,2013-01-18 02:15:00,
2013-01-17 17:20:00,-9.8,-18.9,29.62,WSW,241,0.0,0.0,63,0.00,,,0.00,Weather View 32 v70,2013-01-18 02:20:00,
2013-01-17 17:26:00,-10.1,-19.2,29.63,WSW,241,0.0,0.0,63,0.00,,,0.00,Weather View 32 v70,2013-01-18 02:26:00,
2013-01-17 17:31:00,-10.6,-19.7,29.63,WSW,241,0.0,0.0,63,0.00,,,0.00,Weather View 32 v70,2013-01-18 02:31:00,
2013-01-17 17:36:00,-10.8,-19.9,29.63,WSW,241,0.0,0.0,63,0.00,,,0.00,Weather View 32 v70,2013-01-18 02:36:00,
2013-01-17 17:41:00,-10.9,-20.0,29.64,WSW,241,0.0,0.0,63,0.00,,,0.00,Weather View 32 v70,2013-01-18 02:41:00,
2013-01-17 17:46:00,-11.1,-20.2,29.64,WSW,241,0.0,0.0,63,0.00,,,0.00,Weather View 32 v70,2013-01-18 02:46:00,
2013-01-17 17:51:00,-11.4,-20.8,29.64,WSW,241,0.0,0.0,62,0.00,,,0.00,Weather View 32 v70,2013-01-18 02:51:00,
2013-01-17 17:56:00,-11.7,-21.0,29.64,WSW,241,0.0,0.0,62,0.00,,,0.00,Weather View 32 v70,2013-01-18 02:56:00,
2013-01-17 18:01:00,-11.9,-21.2,29.64,WSW,241,0.0,0.0,62,0.00,,,0.00,Weather View 32 v70,2013-01-18 03:01:00,
2013-01-17 18:06:00,-12.1,-21.4,29.64,WSW,241,0.0,0.0,62,0.00,,,0.00,Weather View 32 v70,2013-01-18 03:06:00,
2013-01-17 18:11:00,-12.1,-21.4,29.65,WSW,241,0.0,0.0,62,0.00,,,0.00,Weather View 32 v70,2013-01-18 03:11:00,
2013-01-17 18:16:00,-12.5,-21.8,29.65,WSW,241,0.0,0.0,62,0.00,,,0.00,Weather View 32 v70,2013-01-18 03:16:00,
2013-01-17 18:21:00,-12.7,-22.0,29.66,WSW,241,0.0,0.0,62,0.00,,,0.00,Weather View 32 v70,2013-01-18 03:21:00,
2013-01-17 18:26:00,-13.0,-22.6,29.66,WSW,241,0.0,0.0,61,0.00,,,0.00,Weather View 32 v70,2013-01-18 03:26:00,
2013-01-17 18:31:00,-13.0,-22.3,29.66,WSW,241,0.0,0.0,62,0.00,,,0.00,Weather View 32 v70,2013-01-18 03:31:00,
2013-01-17 18:36:00,-13.1,-22.4,29.66,WSW,241,0.0,0.0,62,0.00,,,0.00,Weather View 32 v70,2013-01-18 03:36:00,
2013-01-17 18:41:00,-13.2,-22.8,29.66,WSW,241,0.0,0.0,61,0.00,,,0.00,Weather View 32 v70,2013-01-18 03:41:00,
2013-01-17 18:46:00,-13.5,-23.1,29.66,WSW,241,0.0,0.0,61,0.00,,,0.00,Weather View 32 v70,2013-01-18 03:46:00,
2013-01-17 18:51:00,-13.7,-23.3,29.67,WSW,241,0.0,0.0,61,0.00,,,0.00,Weather View 32 v70,2013-01-18 03:51:00,
2013-01-17 18:56:00,-14.0,-23.9,29.67,WSW,241,0.0,0.0,60,0.00,,,0.00,Weather View 32 v70,2013-01-18 03:56:00,
2013-01-17 19:01:00,-14.3,-23.8,29.67,WSW,241,0.0,0.0,61,0.00,,,0.00,Weather View 32 v70,2013-01-18 04:01:00,
2013-01-17 19:06:00,-14.4,-23.9,29.67,WSW,240,0.0,1.0,61,0.00,,,0.00,Weather View 32 v70,2013-01-18 04:06:00,
2013-01-17 19:11:00,-14.6,-24.1,29.67,WSW,241,0.0,1.0,61,0.00,,,0.00,Weather View 32 v70,2013-01-18 04:11:00,
2013-01-17 19:16:00,-14.9,-24.7,29.68,WSW,241,0.0,1.0,60,0.00,,,0.00,Weather View 32 v70,2013-01-18 04:16:00,
2013-01-17 19:21:00,-15.3,-25.4,29.68,WSW,241,0.0,1.0,59,0.00,,,0.00,Weather View 32 v70,2013-01-18 04:21:00,
2013-01-17 19:26:00,-15.5,-25.6,29.68,WSW,241,0.0,1.0,59,0.00,,,0.00,Weather View 32 v70,2013-01-18 04:26:00,
2013-01-17 19:31:00,-15.4,-25.2,29.68,WSW,241,0.0,1.0,60,0.00,,,0.00,Weather View 32 v70,2013-01-18 04:31:00,
2013-01-17 19:36:00,-15.5,-25.3,29.68,WSW,241,0.0,1.0,60,0.00,,,0.00,Weather View 32 v70,2013-01-18 04:36:00,
2013-01-17 19:41:00,-15.7,-25.5,29.68,WSW,241,0.0,1.0,60,0.00,,,0.00,Weather View 32 v70,2013-01-18 04:41:00,
2013-01-17 19:46:00,-16.0,-26.1,29.69,WSW,240,0.0,1.0,59,0.00,,,0.00,Weather View 32 v70,2013-01-18 04:46:00,
2013-01-17 19:51:00,-16.2,-26.3,29.69,WSW,241,0.0,1.0,59,0.00,,,0.00,Weather View 32 v70,2013-01-18 04:51:00,
2013-01-17 19:56:00,-16.6,-26.6,29.69,WSW,241,0.0,1.0,59,0.00,,,0.00,Weather View 32 v70,2013-01-18 04:56:00,
2013-01-17 20:01:00,-16.9,-27.2,29.69,WSW,241,0.0,1.0,58,0.00,,,0.00,Weather View 32 v70,2013-01-18 05:01:00,
2013-01-17 20:03:00,-17.0,-27.3,29.70,WSW,241,0.0,1.0,58,0.00,,,0.00,Weather View 32 v70,2013-01-18 05:03:00,
2013-01-17 20:08:00,-17.2,-27.5,29.69,WSW,241,0.0,1.0,58,0.00,,,0.00,Weather View 32 v70,2013-01-18 05:08:00,
2013-01-17 20:13:00,-17.4,-27.7,29.70,WSW,241,0.0,1.0,58,0.00,,,0.00,Weather View 32 v70,2013-01-18 05:13:00,
2013-01-17 20:18:00,-17.7,-28.0,29.70,WSW,241,0.0,1.0,58,0.00,,,0.00,Weather View 32 v70,2013-01-18 05:18:00,
2013-01-17 20:23:00,-17.9,-28.2,29.70,WSW,241,0.0,1.0,58,0.00,,,0.00,Weather View 32 v70,2013-01-18 05:23:00,
2013-01-17 20:28:00,-18.1,-28.4,29.71,WSW,241,0.0,1.0,58,0.00,,,0.00,Weather View 32 v70,2013-01-18 05:28:00,
2013-01-17 20:33:00,-18.3,-28.6,29.71,WSW,241,0.0,1.0,58,0.00,,,0.00,Weather View 32 v70,2013-01-18 05:33:00,
2013-01-17 20:38:00,-18.4,-28.7,29.71,WSW,241,0.0,0.0,58,0.00,,,0.00,Weather View 32 v70,2013-01-18 05:38:00,
2013-01-17 20:43:00,-18.5,-29.1,29.71,WSW,241,0.0,0.0,57,0.00,,,0.00,Weather View 32 v70,2013-01-18 05:43:00,
2013-01-17 20:48:00,-18.7,-28.9,29.71,WSW,241,0.0,0.0,58,0.00,,,0.00,Weather View 32 v70,2013-01-18 05:48:00,
2013-01-17 20:53:00,-18.8,-29.3,29.72,WSW,241,0.0,0.0,57,0.00,,,0.00,Weather View 32 v70,2013-01-18 05:53:00,
2013-01-17 20:58:00,-18.9,-29.4,29.72,WSW,241,0.0,0.0,57,0.00,,,0.00,Weather View 32 v70,2013-01-18 05:58:00,
2013-01-17 21:03:00,-19.2,-29.7,29.72,WSW,241,0.0,0.0,57,0.00,,,0.00,Weather View 32 v70,2013-01-18 06:03:00,
2013-01-17 21:08:00,-19.2,-29.7,29.72,WSW,241,0.0,0.0,57,0.00,,,0.00,Weather View 32 v70,2013-01-18 06:08:00,
2013-01-17 21:13:00,-19.2,-29.7,29.72,WSW,241,0.0,0.0,57,0.00,,,0.00,Weather View 32 v70,2013-01-18 06:13:00,
2013-01-17 21:18:00,-19.2,-29.4,29.73,WSW,241,0.0,0.0,58,0.00,,,0.00,Weather View 32 v70,2013-01-18 06:18:00,
2013-01-17 21:23:00,-19.0,-29.2,29.73,WSW,241,0.0,0.0,58,0.00,,,0.00,Weather View 32 v70,2013-01-18 06:23:00,
2013-01-17 21:28:00,-19.0,-29.2,29.73,WSW,241,0.0,0.0,58,0.00,,,0.00,Weather View 32 v70,2013-01-18 06:28:00,
2013-01-17 21:33:00,-19.0,-29.2,29.74,WSW,241,0.0,0.0,58,0.00,,,0.00,Weather View 32 v70,2013-01-18 06:33:00,
2013-01-17 21:38:00,-19.0,-29.2,29.73,WSW,241,0.0,0.0,58,0.00,,,0.00,Weather View 32 v70,2013-01-18 06:38:00,
2013-01-17 21:43:00,-19.1,-29.3,29.74,WSW,241,0.0,0.0,58,0.00,,,0.00,Weather View 32 v70,2013-01-18 06:43:00,
2013-01-17 21:48:00,-19.0,-29.2,29.74,WSW,241,0.0,0.0,58,0.00,,,0.00,Weather View 32 v70,2013-01-18 06:48:00,
2013-01-17 21:53:00,-18.9,-29.1,29.74,WSW,241,0.0,0.0,58,0.00,,,0.00,Weather View 32 v70,2013-01-18 06:53:00,
2013-01-17 21:58:00,-18.9,-29.1,29.74,WSW,241,0.0,0.0,58,0.00,,,0.00,Weather View 32 v70,2013-01-18 06:58:00,
2013-01-17 22:03:00,-18.9,-29.1,29.75,WSW,241,0.0,0.0,58,0.00,,,0.00,Weather View 32 v70,2013-01-18 07:03:00,
2013-01-17 22:08:00,-18.6,-28.5,29.75,WSW,241,0.0,0.0,59,0.00,,,0.00,Weather View 32 v70,2013-01-18 07:08:00,
2013-01-17 22:13:00,-18.3,-28.2,29.75,WSW,241,0.0,1.0,59,0.00,,,0.00,Weather View 32 v70,2013-01-18 07:13:00,
2013-01-17 22:18:00,-17.9,-27.9,29.75,WSW,241,0.0,1.0,59,0.00,,,0.00,Weather View 32 v70,2013-01-18 07:18:00,
2013-01-17 22:23:00,-17.7,-27.7,29.75,WSW,241,0.0,1.0,59,0.00,,,0.00,Weather View 32 v70,2013-01-18 07:23:00,
2013-01-17 22:28:00,-17.5,-27.5,29.75,WSW,241,0.0,1.0,59,0.00,,,0.00,Weather View 32 v70,2013-01-18 07:28:00,
2013-01-17 22:33:00,-17.2,-26.9,29.76,WSW,241,0.0,1.0,60,0.00,,,0.00,Weather View 32 v70,2013-01-18 07:33:00,
2013-01-17 22:38:00,-16.8,-26.2,29.76,WSW,241,0.0,1.0,61,0.00,,,0.00,Weather View 32 v70,2013-01-18 07:38:00,
2013-01-17 22:43:00,-16.3,-25.7,29.76,WSW,241,0.0,1.0,61,0.00,,,0.00,Weather View 32 v70,2013-01-18 07:43:00,
2013-01-17 22:48:00,-15.9,-25.3,29.76,WSW,241,0.0,1.0,61,0.00,,,0.00,Weather View 32 v70,2013-01-18 07:48:00,
2013-01-17 22:53:00,-15.5,-24.7,29.76,WSW,241,0.0,1.0,62,0.00,,,0.00,Weather View 32 v70,2013-01-18 07:53:00,
2013-01-17 22:58:00,-15.1,-24.3,29.76,WSW,241,0.0,1.0,62,0.00,,,0.00,Weather View 32 v70,2013-01-18 07:58:00,
2013-01-17 23:03:00,-14.9,-24.1,29.77,WSW,241,0.0,1.0,62,0.00,,,0.00,Weather View 32 v70,2013-01-18 08:03:00,
2013-01-17 23:08:00,-14.7,-24.2,29.77,WSW,241,0.0,1.0,61,0.00,,,0.00,Weather View 32 v70,2013-01-18 08:08:00,
2013-01-17 23:13:00,-14.7,-24.2,29.78,WSW,241,0.0,0.0,61,0.00,,,0.00,Weather View 32 v70,2013-01-18 08:13:00,
2013-01-17 23:18:00,-14.8,-24.3,29.78,WSW,241,0.0,0.0,61,0.00,,,0.00,Weather View 32 v70,2013-01-18 08:18:00,
2013-01-17 23:23:00,-14.9,-24.4,29.78,WSW,241,0.0,0.0,61,0.00,,,0.00,Weather View 32 v70,2013-01-18 08:23:00,
2013-01-17 23:28:00,-15.1,-24.9,29.78,WSW,241,0.0,0.0,60,0.00,,,0.00,Weather View 32 v70,2013-01-18 08:28:00,
2013-01-17 23:33:00,-15.2,-25.0,29.78,WSW,241,0.0,0.0,60,0.00,,,0.00,Weather View 32 v70,2013-01-18 08:33:00,
2013-01-17 23:38:00,-15.4,-25.2,29.79,WSW,241,0.0,0.0,60,0.00,,,0.00,Weather View 32 v70,2013-01-18 08:38:00,
2013-01-17 23:43:00,-15.6,-25.7,29.79,WSW,241,0.0,0.0,59,0.00,,,0.00,Weather View 32 v70,2013-01-18 08:43:00,
2013-01-17 23:48:00,-15.8,-25.9,29.79,WSW,241,0.0,0.0,59,0.00,,,0.00,Weather View 32 v70,2013-01-18 08:48:00,
2013-01-17 23:53:00,-16.1,-26.2,29.80,WSW,241,0.0,0.0,59,0.00,,,0.00,Weather View 32 v70,2013-01-18 08:53:00,
2013-01-17 23:58:00,-16.3,-26.3,29.79,WSW,241,0.0,0.0,59,0.00,,,0.00,Weather View 32 v70,2013-01-18 08:58:00,